Preview of NWS' New Version of Forecast
This preview is not operational and should not be used for support decisions.

Regional Weather Roundup (RWR)

Issued by National Weather Service (NWS)

                            
000
ASUS45 KBOU 260810
RWRCO 

WEATHER ROUNDUP FOR COLORADO
NATIONAL WEATHER SERVICE DENVER/BOULDER CO
200 AM MDT FRI APR 26 2019

NOTE: "FAIR" INDICATES FEW OR NO CLOUDS BELOW 12000 FEET WITH NO
SIGNIFICANT WEATHER AND/OR OBSTRUCTIONS TO VISIBILITY.

COZ001>005-013-030-031-260900-
...NORTHWEST COLORADO...
  
CITY           SKY/WX    TMP DP  RH WIND       PRES   REMARKS
CRAIG          MOCLDY    40  35  83 CALM      30.14F                  
HAYDEN         FAIR      44  30  57 SE8       30.16F                  
MEEKER         FAIR      42  27  55 E6        30.16S                  
RANGELY        FAIR      44  36  72 E3        30.11S                  
RABBIT EARS PA NOT AVBL                                               
STEAMBOAT SPGS CLOUDY    40  31  68 CALM      30.16F                  
WALDEN         FAIR      34  25  69 SE7       30.21F WCI  28          
$$

COZ006>008-011-260900-
...WEST CENTRAL VALLEYS...
  
CITY           SKY/WX    TMP DP  RH WIND       PRES   REMARKS
GRAND JUNCTION FAIR      58  33  39 E3        30.08S                  
MONTROSE       FAIR      52  27  38 SE10      30.16F                  
EAGLE          FAIR      40  24  53 SE3       30.21S                  
RIFLE          FAIR      46  32  58 CALM      30.13S                  
DELTA          FAIR      51  25  36 E3        30.13S                  
NUCLA          FAIR      50  27  40 E10       30.19S                  
$$

COZ017>023-064>068-260900-
...SOUTHWEST COLORADO...
  
CITY           SKY/WX    TMP DP  RH WIND       PRES   REMARKS
DURANGO        FAIR      43  29  57 CALM      30.20F                  
CORTEZ         FAIR      43  30  60 NE7       30.18F                  
PAGOSA SPRINGS FAIR      37  32  81 CALM      30.27S                  
TELLURIDE      FAIR      41  25  52 SE6       30.35F                  
WOLF CREEK PAS FAIR      34  28  80 SW14      30.48F WCI  24          
$$

COZ009-010-012-014-032>034-037-058>063-260900-
...CENTRAL COLORADO...
  
CITY           SKY/WX    TMP DP  RH WIND       PRES   REMARKS
ASPEN          FAIR      41  22  46 SW6       30.22F                  
BUENA VISTA    FAIR      36  25  64 W3        30.28S                  
COPPER MTN     FAIR      37  23  56 SW13G18   30.39F                  
BERTHOUD PASS  FAIR      30  19  64 W20G35    30.38S WCI  18          
COTTONWOOD PAS FAIR      39  28  65 CALM      30.33F                  
GUNNISON       FAIR      36  26  67 CALM      30.27S                  
GRANBY         FAIR      31  22  72 CALM      30.24F                  
KREMMLING      FAIR      34  25  69 CALM      30.22S                  
LEADVILLE      FAIR      27  22  81 NE3       30.32F                  
MONARCH PASS   FAIR      34  18  51 W18       30.51F WCI  23          
SALIDA         FAIR      42  29  61 SW7       30.33F                  
SUNLIGHT       FAIR      34  25  69 SW10G18   30.38F WCI  26          
WILKERSON PASS FAIR      32  25  74 SW13      30.38F WCI  22          
$$

COZ069>075-260900-
...SAN LUIS VALLEY/SANGRE DE CRISTO MOUNTAINS...
  
CITY           SKY/WX    TMP DP  RH WIND       PRES   REMARKS
ALAMOSA        FAIR      41  32  70 S5        30.22F                  
DEL NORTE      FAIR      44  27  50 W12       30.25F                  
LA VETA PASS   NOT AVBL                                               
SAGUACHE       FAIR      39  28  65 CALM      30.26S                  
$$

COZ035-036-038>040-260900-
...NORTHERN COLORADO FRONT RANGE...
  
CITY           SKY/WX    TMP DP  RH WIND       PRES   REMARKS
DENVER INTL AP FAIR      45  31  58 S15       30.13F                  
AURORA         CLEAR     49  28  45 S24       30.13F                  
FRONT RANGE AP FAIR      47  32  54 S17       30.16F                  
ERIE MUNI ARPT FAIR      41  32  70 CALM      30.18F                  
BOULDER MUN AP FAIR      45  34  65 SE3       30.13F                  
CENTENNIAL     FAIR      50  29  44 S16G24    30.15F                  
BROOMFIELD     FAIR      45  32  61 NW10      30.14F                  
FORT COLLINS   FAIR      43  30  60 N5        30.14F                  
LONGMONT       FAIR      47  33  58 NW6       30.15F                  
$$

COZ041-046-047-076>085-087-088-260900-
...PIKES PEAK/PALMER DIVIDE AND SOUTHERN FOOTHILLS...
  
CITY           SKY/WX    TMP DP  RH WIND       PRES   REMARKS
COLO. SPRINGS  FAIR      41  26  55 E6        30.23F                  
A. F. ACADEMY  FAIR      44  26  48 E7        30.22F                  
SCHRIEVER AFB  NOT AVBL                                               
CHEYENNE MTN   NOT AVBL                                               
ELLICOTT         N/A    N/A N/A N/A SE12      30.21F                  
FALCON         FAIR      40  24  52 SE5       30.26F                  
FORT CARSON    FAIR      45  27  50 CALM      30.20F                  
LIMON          FAIR      34  26  72 S7        30.20F WCI  28          
MONUMENT HILL  FAIR      41  27  56 SE23      30.22F                  
CANON CITY     NOT AVBL                                               
WALSENBURG     NOT AVBL                                               
TRINIDAD       MOCLDY    46  42  86 N5        30.21F                  
$$

COZ042>045-048>051-090-091-260900-
...NORTHEAST COLORADO...
  
CITY           SKY/WX    TMP DP  RH WIND       PRES   REMARKS
GREELEY ARPT   FAIR      44  32  62 SE9       30.15F                  
AKRON          FAIR      44  31  60 S13       30.17F                  
BURLINGTON     FAIR      38  28  67 S12       30.19F                  
WRAY           FAIR      41  30  65 CALM      30.19F                  
YUMA           NOT AVBL                                               
STERLING       FAIR      37  32  81 NW5       30.16F                  
HOLYOKE        FAIR      41  32  70 SE3       30.19S                  
FORT MORGAN      N/A     41  28  59 S6        30.17F                  
$$

COZ086-089-092>099-260900-
...SOUTHEAST COLORADO...
  
CITY           SKY/WX    TMP DP  RH WIND       PRES   REMARKS
PUEBLO         FAIR      50  36  58 NE12      30.17F                  
LA JUNTA       FAIR      49  31  49 E3        30.18F                  
LAMAR          FAIR      40  31  70 NW3       30.19S                  
SPRINGFIELD      N/A     41  34  76 SW7       30.22F                  
$$